Regional Weather Roundup
Issued by NWS

Home | Current Version | Previous Version | Text Only | Print | Product List | Glossary Off
Versions: 1 2 3 4 5 6 7 8 9 10 11 12 13 14 15 16 17 18 19 20 21 22 23 24 25 26 27 28 29 30 31 32 33 34 35 36 37 38 39 40 41 42 43 44 45 46 47 48 49 50

000
ASUS43 KLSX 062259
RWRMO

WEATHER SUMMARY FOR MISSOURI
NATIONAL WEATHER SERVICE SPRINGFIELD MO
600 PM CDT WED MAY 06 2015

NOTE: "FAIR" INDICATES FEW OR NO CLOUDS BELOW 12,000 FEET WITH NO
       SIGNIFICANT WEATHER AND/OR OBSTRUCTIONS TO VISIBILITY.
       CURRENT SKY AND/OR WEATHER CONDITIONS ARE NOT AVAILABLE FOR
       CHILLICOTHE AND FARMINGTON.

MOZ001>031-035>038-043-044-053-054-070000-
...NORTHERN AND WESTERN MISSOURI...

CITY           SKY/WX    TMP DP  RH WIND       PRES   REMARKS
KANSAS CTY INT MOSUNNY   69  63  81 SE21G29   29.86F
KANSAS C DTWN  SUNNY     73  63  70 SE12G23   29.86F
LEE`S SUMMIT   MOSUNNY   74  63  68 SE8G20    29.88F
ST JOSEPH      CLOUDY    70  58  65 SE16      29.85F
CHILLICOTHE      N/A     70  62  76 S9G20     29.95S
KIRKSVILLE     CLOUDY    74  62  66 S14       29.98F

$$
MOZ066>068-077>081-088>096-101>105-070000-
...SOUTHWEST MISSOURI...

CITY           SKY/WX    TMP DP  RH WIND       PRES   REMARKS
SPRINGFIELD    SUNNY     77  53  43 S22G31    29.96F
JOPLIN         MOSUNNY   78  56  46 S21G29    29.91F

$$
MOZ032>034-039>042-045>050-055>058-069>072-070000-
...CENTRAL MISSOURI...

CITY           SKY/WX    TMP DP  RH WIND       PRES   REMARKS
COLUMBIA       PTSUNNY   78  57  48 S12       29.97F
JEFFERSON CITY MOSUNNY   81  54  39 SE10      29.96F
ROLLA          PTSUNNY   79  54  41 S18G28    29.99F
SEDALIA        MOSUNNY   80  60  50 S16G22    29.94F
OSAGE BEACH    PTSUNNY   79  55  44 S12G23    29.97F

$$
MOZ051-052-059>065-070000-
...EAST CENTRAL MISSOURI...

CITY           SKY/WX    TMP DP  RH WIND       PRES   REMARKS
ST LOUIS INTL  MOSUNNY   85  51  31 S15G23    30.01F
SPIRIT OF STL  MOSUNNY   83  50  31 S10G22    29.98F
ST CHARLES     MOSUNNY   83  52  34 S18       29.99F

$$
MOZ072>076-082>087-097>100-106>115-070000-
...SOUTH CENTRAL AND SOUTHEAST MISSOURI...

CITY           SKY/WX    TMP DP  RH WIND       PRES   REMARKS
CAPE GIRARDEAU SUNNY     82  54  37 S13       30.03F
FARMINGTON     MOSUNNY   81  54  39 S14       30.07F
POPLAR BLUFF   SUNNY     82  52  35 SE14      30.01F
WEST PLAINS    PTSUNNY   77  53  43 S9G18     30.03F

$$


USA.gov is the U.S. government's official web portal to all federal, state and local government web resources and services.